This is the latest recevied weather packets stored in our database for station/object DB2AG-10. If no packets are shown the sender has not sent any weather packets the latest 10 day(s).
| Time | Temp. | Humidity | Pressure | Rain* | Wind** | Luminosity | Snow |
|---|---|---|---|---|---|---|---|
| 1777141853 | 19.44° C | 38% | 1016.9 hPa | - | - | - | - |
| 1777140953 | 20° C | 38% | 1016.8 hPa | - | - | - | - |
| 1777140052 | 20° C | 37% | 1016.9 hPa | - | - | - | - |
| 1777139152 | 20° C | 37% | 1016.9 hPa | - | - | - | - |
| 1777138252 | 20° C | 36% | 1016.6 hPa | - | - | - | - |
| 1777137352 | 20.56° C | 36% | 1016.9 hPa | - | - | - | - |
| 1777136452 | 20.56° C | 37% | 1016.8 hPa | - | - | - | - |
| 1777135552 | 20° C | 37% | 1016.7 hPa | - | - | - | - |
| 1777134652 | 20.56° C | 38% | 1016.6 hPa | - | - | - | - |
| 1777133752 | 20.56° C | 37% | 1016.5 hPa | - | - | - | - |
| 1777132852 | 20.56° C | 38% | 1016.5 hPa | - | - | - | - |
| 1777131951 | 20° C | 39% | 1016.7 hPa | - | - | - | - |
| 1777131051 | 20.56° C | 39% | 1016.7 hPa | - | - | - | - |
| 1777130151 | 20° C | 40% | 1016.6 hPa | - | - | - | - |
| 1777129251 | 20° C | 41% | 1016.6 hPa | - | - | - | - |
| 1777128351 | 20° C | 42% | 1016.6 hPa | - | - | - | - |
| 1777127451 | 20° C | 42% | 1016.6 hPa | - | - | - | - |
| 1777126555 | 19.44° C | 42% | 1016.5 hPa | - | - | - | - |
| 1777125651 | 18.89° C | 43% | 1016.7 hPa | - | - | - | - |
| 1777124751 | 18.89° C | 43% | 1016.8 hPa | - | - | - | - |
| 1777123850 | 18.33° C | 44% | 1016.8 hPa | - | - | - | - |
| 1777122950 | 18.33° C | 44% | 1017 hPa | - | - | - | - |
| 1777122050 | 18.33° C | 44% | 1017.2 hPa | - | - | - | - |
| 1777121150 | 18.33° C | 44% | 1017.4 hPa | - | - | - | - |
| 1777120250 | 17.78° C | 44% | 1017.4 hPa | - | - | - | - |
* Rain since midnight (hover to see other rain measurements)
** Current wind speed in m/s (hover to see current wind gust speed)